Visibility
12.5 13.4 15.0 15.0 15.0 15.0 15.0 14.7 15.0 15.0 15.0 14.3 15.0 9.2 15.0 15.0 15.0 15.0 15.0 8.8 0.1 1.4 0.1 0.2 5.0 15.0 15.0 15.0 8.6 0.0 0.4 0.1 0.1 0.0 0.1 0.1 0.0 0.1 6.3 15.0 9.7 12.0 5.0 0.5 0.2 0.1 0.1 15.0 15.0 15.0 15.0 15.0 15.0 15.0
6.4 5.1 15.0 15.0 15.0 15.0 15.0 15.0 15.0 15.0 11.2 10.0 5.8 14.8 15.0 15.0 15.0 15.0 15.0 6.5 5.4 0.7 0.1 0.5 0.7 0.2 0.1 1.4 0.7 3.0 14.0 15.0 13.5 1.8 0.6 0.3 0.0 0.4 6.3 0.0 15.0 2.0 15.0 0.1 14.9 12.5 15.0 15.0 15.0 15.0 15.0 15.0 15.0 15.0
14.8 15.0 15.0 15.0 15.0 14.5 15.0 14.7 11.6 7.8 7.5 6.3 6.4 7.1 15.0 15.0 15.0 15.0 11.9 2.7 2.8 0.3 0.6 3.0 0.1 0.2 11.5 0.3 12.4 2.4 0.7 15.0 12.6 14.4 4.2 0.1 0.0 14.5 0.1 0.2 12.8 15.0 15.0 15.0 13.7 15.0 15.0 15.0 15.0 15.0 15.0 15.0 15.0 15.0
9.7 13.3 15.0 15.0 15.0 15.0 11.5 7.2 7.7 5.8 4.7 5.6 9.7 15.0 15.0 15.0 15.0 15.0 7.6 7.1 5.8 0.7 0.1 0.1 0.2 0.1 10.7 8.8 15.0 11.4 11.4 12.2 6.3 4.6 0.0 0.0 0.0 13.3 3.1 13.2 15.0 15.0 15.0 15.0 15.0 15.0 15.0 15.0 15.0 15.0 15.0 15.0 15.0 15.0
10.4 13.6 15.0 12.2 11.4 9.1 7.7 4.8 5.1 6.9 14.2 15.0 15.0 15.0 15.0 15.0 15.0 14.8 15.0 5.2 8.6 3.1 0.2 0.2 0.0 0.1 6.7 8.6 12.0 12.2 8.0 7.1 0.4 0.0 0.0 0.0 14.7 14.4 15.0 15.0 15.0 15.0 15.0 15.0 15.0 15.0 15.0 15.0 15.0 15.0 15.0 15.0 15.0 15.0
7.4 3.8 5.8 10.1 13.3 7.8 6.4 8.8 14.8 15.0 15.0 15.0 15.0 15.0 15.0 15.0 11.6 15.0 0.1 2.4 4.0 5.7 1.2 0.1 0.0 0.0 2.1 8.9 6.9 4.6 5.3 5.0 2.5 4.5 9.2 15.0 15.0 15.0 15.0 15.0 15.0 15.0 15.0 15.0 15.0 15.0 15.0 15.0 15.0 15.0 15.0 15.0 15.0 15.0
14.0 10.7 15.0 15.0 15.0 15.0 15.0 15.0 15.0 15.0 15.0 15.0 15.0 15.0 15.0 11.7 14.2 5.7 3.4 2.3 4.1 3.3 1.2 0.1 0.1 0.0 0.1 0.1 0.1 0.1 7.3 8.8 10.0 15.0 14.8 15.0 15.0 15.0 15.0 15.0 15.0 15.0 15.0 15.0 15.0 15.0 15.0 15.0 15.0 15.0 15.0 15.0 15.0 15.0
10.5 14.8 15.0 15.0 15.0 15.0 15.0 15.0 15.0 15.0 15.0 15.0 10.3 5.6 4.8 3.1 3.4 2.9 1.2 15.0 7.5 4.7 2.1 0.1 0.1 0.2 0.1 0.0 0.1 13.7 15.0 15.0 15.0 15.0 15.0 15.0 15.0 15.0 15.0 15.0 15.0 15.0 15.0 15.0 15.0 15.0 15.0 15.0 15.0 15.0 15.0 15.0 15.0 15.0
15.0 15.0 15.0 15.0 15.0 15.0 15.0 15.0 15.0 12.7 3.4 4.1 12.4 3.3 3.8 1.3 0.4 0.4 5.2 6.4 5.2 3.7 0.3 0.6 2.2 0.4 1.2 0.1 10.7 5.9 15.0 15.0 15.0 15.0 15.0 15.0 15.0 15.0 15.0 15.0 15.0 15.0 15.0 15.0 15.0 15.0 15.0 15.0 15.0 15.0 15.0 15.0 3.0 0.0
15.0 15.0 15.0 15.0 15.0 15.0 15.0 15.0 15.0 14.5 7.1 10.7 3.0 0.6 0.1 0.1 3.9 4.9 4.6 0.1 0.1 0.1 1.8 14.6 15.0 0.8 9.3 3.2 0.3 15.0 15.0 15.0 15.0 15.0 15.0 15.0 15.0 15.0 15.0 15.0 15.0 15.0 15.0 15.0 15.0 12.9 13.4 15.0 15.0 15.0 14.8 9.3 2.0 0.2
14.6 15.0 15.0 15.0 15.0 15.0 15.0 15.0 14.4 4.5 3.4 5.0 0.0 0.0 0.1 3.9 4.3 0.2 0.0 0.1 0.0 0.1 5.3 15.0 15.0 0.7 11.5 15.0 15.0 15.0 15.0 15.0 15.0 15.0 15.0 15.0 15.0 15.0 15.0 15.0 15.0 15.0 15.0 15.0 15.0 15.0 15.0 15.0 15.0 9.1 8.8 10.3 11.4 15.0
15.0 15.0 15.0 15.0 15.0 15.0 15.0 15.0 4.7 4.1 8.0 5.2 6.6 1.5 0.1 0.1 0.1 0.3 0.6 13.7 9.6 14.3 15.0 13.2 5.8 15.0 15.0 15.0 15.0 15.0 15.0 15.0 15.0 15.0 15.0 15.0 15.0 15.0 15.0 15.0 15.0 15.0 15.0 15.0 15.0 15.0 15.0 15.0 15.0 15.0 15.0 15.0 15.0 15.0
15.0 15.0 15.0 15.0 15.0 15.0 7.0 4.5 6.9 15.0 14.6 12.9 6.6 4.1 4.2 2.2 0.6 9.2 13.3 14.7 15.0 15.0 15.0 15.0 15.0 15.0 15.0 15.0 15.0 15.0 15.0 15.0 15.0 15.0 15.0 3.2 15.0 15.0 15.0 15.0 15.0 15.0 15.0 15.0 15.0 15.0 15.0 15.0 15.0 15.0 15.0 15.0 15.0 15.0
15.0 15.0 15.0 12.3 12.8 13.2 6.8 8.4 9.5 5.2 7.4 7.5 4.4 0.9 2.0 11.1 15.0 15.0 15.0 15.0 15.0 15.0 15.0 15.0 15.0 15.0 15.0 15.0 15.0 15.0 15.0 15.0 15.0 15.0 15.0 6.6 15.0 15.0 15.0 15.0 15.0 15.0 15.0 15.0 15.0 15.0 15.0 15.0 15.0 15.0 15.0 15.0 15.0 15.0
15.0 15.0 15.0 12.2 3.6 4.4 4.8 5.8 7.1 9.3 12.5 3.5 10.2 1.8 15.0 15.0 15.0 15.0 15.0 15.0 15.0 15.0 15.0 15.0 15.0 15.0 15.0 10.2 15.0 15.0 15.0 15.0 15.0 15.0 12.9 15.0 15.0 15.0 15.0 15.0 15.0 15.0 15.0 15.0 15.0 15.0 15.0 15.0 15.0 15.0 15.0 15.0 15.0 15.0
14.3 7.1 5.0 7.4 8.8 13.4 8.8 9.0 13.5 15.0 15.0 15.0 13.3 7.9 3.3 15.0 15.0 15.0 15.0 15.0 15.0 15.0 15.0 15.0 15.0 15.0 15.0 15.0 15.0 15.0 15.0 15.0 15.0 14.9 14.8 15.0 15.0 15.0 15.0 15.0 15.0 15.0 15.0 15.0 15.0 15.0 15.0 15.0 15.0 15.0 15.0 15.0 15.0 15.0
7.8 0.1 5.4 6.5 12.8 12.2 14.7 15.0 15.0 15.0 15.0 6.0 0.4 15.0 15.0 14.9 14.2 15.0 15.0 15.0 15.0 15.0 15.0 15.0 15.0 15.0 15.0 15.0 15.0 15.0 15.0 4.0 14.9 15.0 15.0 15.0 15.0 15.0 15.0 15.0 15.0 15.0 15.0 15.0 15.0 15.0 15.0 15.0 15.0 15.0 15.0 15.0 15.0 15.0
0.2 1.3 10.2 15.0 15.0 15.0 15.0 15.0 15.0 15.0 0.4 0.2 0.0 0.4 15.0 15.0 15.0 15.0 15.0 15.0 15.0 15.0 15.0 15.0 15.0 15.0 15.0 15.0 15.0 7.2 14.9 15.0 15.0 15.0 15.0 15.0 15.0 15.0 15.0 15.0 15.0 15.0 15.0 15.0 15.0 15.0 15.0 15.0 15.0 15.0 15.0 15.0 15.0 15.0
15.0 15.0 15.0 15.0 15.0 15.0 15.0 15.0 15.0 0.6 0.1 13.8 15.0 15.0 15.0 15.0 15.0 15.0 15.0 15.0 15.0 15.0 15.0 15.0 15.0 15.0 15.0 15.0 15.0 15.0 15.0 15.0 15.0 15.0 15.0 15.0 15.0 15.0 15.0 15.0 15.0 15.0 15.0 15.0 15.0 15.0 15.0 15.0 15.0 15.0 15.0 15.0 15.0 15.0
15.0 15.0 15.0 15.0 15.0 15.0 15.0 15.0 15.0 15.0 4.3 12.5 15.0 15.0 15.0 15.0 15.0 15.0 15.0 15.0 15.0 15.0 15.0 15.0 15.0 15.0 15.0 15.0 15.0 15.0 15.0 15.0 15.0 15.0 15.0 15.0 15.0 15.0 15.0 15.0 15.0 15.0 15.0 15.0 15.0 15.0 15.0 15.0 15.0 15.0 15.0 15.0 15.0 15.0
15.0 15.0 15.0 15.0 15.0 15.0 15.0 15.0 15.0 15.0 15.0 15.0 15.0 15.0 15.0 15.0 15.0 15.0 15.0 15.0 15.0 15.0 15.0 15.0 15.0 15.0 15.0 15.0 15.0 15.0 15.0 15.0 15.0 15.0 15.0 15.0 15.0 15.0 15.0 15.0 15.0 15.0 15.0 15.0 15.0 15.0 15.0 15.0 15.0 15.0 15.0 10.6 15.0 12.3
15.0 15.0 15.0 15.0 15.0 15.0 15.0 15.0 15.0 15.0 15.0 15.0 15.0 15.0 15.0 15.0 15.0 15.0 15.0 15.0 15.0 15.0 15.0 15.0 15.0 15.0 15.0 15.0 15.0 15.0 15.0 15.0 15.0 15.0 15.0 15.0 15.0 15.0 15.0 15.0 15.0 15.0 15.0 15.0 15.0 15.0 15.0 15.0 15.0 15.0 15.0 10.9 14.0 11.6
15.0 15.0 15.0 15.0 15.0 15.0 15.0 15.0 15.0 15.0 15.0 15.0 15.0 15.0 15.0 15.0 15.0 15.0 15.0 15.0 15.0 15.0 15.0 15.0 15.0 15.0 15.0 15.0 15.0 15.0 15.0 15.0 15.0 15.0 15.0 15.0 15.0 15.0 15.0 15.0 15.0 15.0 15.0 15.0 15.0 15.0 15.0 15.0 15.0 15.0 10.7 15.0 8.6 15.0
15.0 15.0 15.0 15.0 15.0 15.0 15.0 3.3 15.0 15.0 15.0 15.0 15.0 15.0 15.0 15.0 15.0 15.0 15.0 15.0 15.0 15.0 15.0 15.0 15.0 15.0 15.0 15.0 15.0 15.0 15.0 15.0 15.0 15.0 15.0 15.0 15.0 15.0 15.0 15.0 15.0 15.0 15.0 15.0 15.0 15.0 15.0 15.0 15.0 9.4 15.0 7.0 8.3 13.3
15.0 15.0 14.3 15.0 0.5 15.0 15.0 15.0 15.0 15.0 15.0 15.0 15.0 15.0 15.0 15.0 15.0 15.0 15.0 13.0 15.0 15.0 15.0 15.0 15.0 15.0 15.0 15.0 15.0 15.0 15.0 15.0 15.0 15.0 15.0 15.0 15.0 15.0 15.0 15.0 15.0 15.0 15.0 15.0 15.0 15.0 14.9 15.0 14.5 12.3 15.0 8.7 15.0 15.0
15.0 15.0 13.7 15.0 15.0 15.0 15.0 15.0 15.0 15.0 15.0 15.0 15.0 15.0 15.0 15.0 15.0 15.0 15.0 15.0 15.0 6.6 0.0 15.0 15.0 15.0 15.0 15.0 15.0 15.0 15.0 15.0 15.0 15.0 15.0 15.0 15.0 15.0 15.0 15.0 15.0 15.0 15.0 15.0 15.0 15.0 15.0 15.0 15.0 15.0 14.3 10.6 5.6 13.7
15.0 15.0 15.0 15.0 15.0 15.0 15.0 15.0 15.0 15.0 15.0 15.0 15.0 15.0 14.6 15.0 15.0 15.0 15.0 15.0 15.0 15.0 15.0 15.0 15.0 15.0 15.0 15.0 15.0 15.0 15.0 15.0 15.0 15.0 15.0 15.0 15.0 15.0 15.0 15.0 15.0 15.0 15.0 15.0 15.0 15.0 15.0 15.0 15.0 15.0 14.1 10.3 7.2 12.4
15.0 15.0 15.0 15.0 15.0 15.0 15.0 15.0 15.0 15.0 15.0 15.0 15.0 15.0 15.0 15.0 13.1 14.4 15.0 15.0 15.0 15.0 15.0 15.0 15.0 15.0 15.0 15.0 15.0 15.0 15.0 15.0 15.0 15.0 15.0 15.0 15.0 15.0 15.0 15.0 15.0 15.0 15.0 15.0 15.0 15.0 15.0 15.0 13.8 14.9 13.6 15.0 10.8 11.1
15.0 15.0 15.0 15.0 15.0 15.0 14.2 15.0 15.0 15.0 15.0 15.0 1.1 15.0 15.0 14.4 0.5 14.9 15.0 15.0 15.0 15.0 15.0 15.0 15.0 15.0 15.0 15.0 15.0 15.0 15.0 15.0 15.0 15.0 15.0 15.0 15.0 15.0 15.0 15.0 15.0 15.0 15.0 15.0 15.0 15.0 15.0 15.0 15.0 15.0 15.0 14.4 13.4 8.6
15.0 15.0 15.0 15.0 14.5 5.6 0.4 0.5 4.0 8.6 11.6 15.0 15.0 15.0 9.5 8.2 0.5 14.2 15.0 15.0 11.1 0.0 0.1 4.4 14.1 15.0 14.2 14.0 4.1 4.8 15.0 15.0 15.0 15.0 15.0 15.0 15.0 15.0 15.0 15.0 15.0 15.0 15.0 15.0 14.3 4.6 13.0 13.3 9.5 8.8 1.9 1.7 3.0 2.7
15.0 15.0 15.0 15.0 5.2 2.2 2.8 9.5 2.8 15.0 15.0 0.3 0.1 0.3 10.7 0.3 0.7 0.9 1.3 0.1 0.2 9.6 10.2 15.0 15.0 11.1 14.0 14.9 8.9 5.4 2.7 13.5 15.0 15.0 15.0 15.0 15.0 15.0 15.0 15.0 15.0 15.0 15.0 15.0 15.0 15.0 10.4 11.8 15.0 10.0 12.5 15.0 15.0 9.7
14.9 1.5 13.8 8.9 1.3 4.3 15.0 15.0 14.8 15.0 15.0 15.0 14.5 14.3 14.8 14.9 6.5 1.3 1.9 3.3 7.7 14.8 15.0 14.6 14.7 14.5 10.3 15.0 15.0 15.0 15.0 15.0 15.0 15.0 15.0 15.0 15.0 15.0 15.0 15.0 15.0 15.0 15.0 15.0 15.0 15.0 15.0 15.0 15.0 15.0 15.0 15.0 14.5 15.0
5.5 15.0 15.0 15.0 5.2 13.4 14.1 15.0 15.0 12.8 13.1 11.8 7.5 6.3 4.6 0.4 0.3 0.8 6.3 3.7 0.6 0.5 1.2 0.5 0.1 12.4 15.0 15.0 15.0 15.0 15.0 15.0 15.0 15.0 15.0 15.0 15.0 15.0 15.0 15.0 15.0 15.0 15.0 15.0 15.0 15.0 15.0 15.0 15.0 15.0 15.0 15.0 15.0 15.0